This demonstration page uses our WeatherBlox Daily Observations layout. Learn more.

Hourly Observations for July 13, 2019

Temp ( °F °C ) Dew Point ( °F °C ) Humidity (%) Winds ( mph kmh ) Pressure ( in mb ) Visibility ( mi km ) Precip ( " mm )
12:15 am 00:15 Clear 74 23.5 67 19.5 78 78 SSE 10 17 29.88 1012 10 16.09344 0 0
12:35 am 00:35 Clear 74 23.3 67 19.5 79 79 S 7 11 29.88 1012 10 16.09344 0 0
12:55 am 00:55 Clear 74 23.3 67 19.3 78 78 S 7 11 29.88 1012 10 16.09344 0 0
1:15 am 01:15 Mostly Cloudy 74 23.1 67 19.6 81 81 Calm 29.97 1015 10 16.09344 0 0
1:35 am 01:35 Mostly Cloudy 74 23.6 67 19.7 79 79 Calm 29.97 1015 10 16.09344 0 0
1:55 am 01:55 Partly Cloudy 74 23.3 68 19.9 81 81 Calm 29.97 1015 10 16.09344 0 0
2:15 am 02:15 Mostly Cloudy 72 22.2 69 20.8 92 92 ENE 6 9 29.97 1015 10 16.09344 0 0
2:35 am 02:35 Partly Cloudy 73 22.6 69 20.5 88 88 NNE 14 22 29.97 1015 10 16.09344 0 0
2:55 am 02:55 Clear 71 21.5 65 18.4 83 83 ENE 14 22 29.97 1015 10 16.09344 0 0
3:15 am 03:15 Clear 70 21.1 67 19.4 90 90 ENE 10 17 29.94 1014 10 16.09344 0 0
3:35 am 03:35 Clear 69 20.8 68 20 95 95 ENE 6 9 29.94 1014 10 16.09344 0 0
3:55 am 03:55 Clear 69 20.8 68 20 95 95 ESE 3 6 29.94 1014 10 16.09344 0 0
4:15 am 04:15 Clear 69 20.8 67 19.6 93 93 ESE 3 6 29.94 1014 10 16.09344 0 0
4:35 am 04:35 Clear 69 20.5 67 19.5 94 94 SSE 6 9 29.91 1013 10 16.09344 0 0
4:55 am 04:55 Clear 68 20.1 67 19.3 95 95 E 3 6 29.91 1013 10 16.09344 0 0
5:15 am 05:15 Clear 68 19.9 67 19.5 98 98 E 3 6 29.91 1013 10 16.09344 0 0
5:35 am 05:35 Clear 67 19.7 66 19.1 96 96 E 6 9 29.91 1013 10 16.09344 0 0
5:55 am 05:55 Clear 67 19.7 66 19.1 96 96 ENE 5 7 29.97 1015 10 16.09344 0 0
6:15 am 06:15 Clear 67 19.5 66 19 97 97 E 6 9 29.97 1015 10 16.09344 0 0
6:35 am 06:35 Sunny 67 19.7 66 19 96 96 ESE 7 11 29.97 1015 10 16.09344 0 0
6:55 am 06:55 Sunny 68 20 66 19.1 95 95 SE 9 15 29.94 1014 10 16.09344 0 0
7:15 am 07:15 Sunny 69 20.5 66 18.8 90 90 SE 12 19 29.94 1014 10 16.09344 0 0
7:35 am 07:35 Sunny 70 21 66 19 88 88 SE 9 15 29.94 1014 10 16.09344 0 0
7:55 am 07:55 Sunny 70 21.2 66 19.1 88 88 SSE 7 11 29.94 1014 10 16.09344 0 0
8:15 am 08:15 Sunny 70 21.3 66 19 87 87 SSE 8 13 29.94 1014 10 16.09344 0 0
8:35 am 08:35 Sunny 71 21.5 66 18.8 85 85 SSE 9 15 29.94 1014 10 16.09344 0 0
8:55 am 08:55 Sunny 71 21.5 66 18.9 85 85 S 6 9 29.97 1015 10 16.09344 0 0
9:15 am 09:15 Sunny 72 22.1 66 19.1 83 83 SSE 8 13 29.97 1015 10 16.09344 0 0
9:35 am 09:35 Sunny 73 22.5 67 19.2 82 82 S 9 15 29.97 1015 10 16.09344 0 0
9:55 am 09:55 Sunny 74 23.1 67 19.6 81 81 S 10 17 29.97 1015 10 16.09344 0 0
10:15 am 10:15 Sunny 76 24.5 68 20.2 77 77 S 10 17 29.94 1014 10 16.09344 0 0
10:35 am 10:35 Sunny 79 26.1 69 20.5 71 71 S 13 20 29.94 1014 10 16.09344 0 0
10:55 am 10:55 Sunny 81 27.3 69 20.5 66 66 SSW 10 17 29.94 1014 10 16.09344 0 0
11:15 am 11:15 Sunny 82 27.6 69 20.4 65 65 S 10 17 29.91 1013 10 16.09344 0 0
11:35 am 11:35 Sunny 82 28 69 20.7 65 65 S 8 13 29.91 1013 10 16.09344 0 0
11:55 am 11:55 Sunny 84 28.7 69 20.5 61 61 SSW 10 17 29.91 1013 10 16.09344 0 0
12:15 pm 12:15 Sunny 82 27.7 69 20.8 66 66 S 8 13 29.91 1013 10 16.09344 0 0
12:35 pm 12:35 Sunny 84 28.8 69 20.5 61 61 S 10 17 29.91 1013 10 16.09344 0 0
12:55 pm 12:55 Sunny 85 29.4 70 21.1 61 61 S 12 19 29.91 1013 10 16.09344 0 0
1:15 pm 13:15 Sunny 86 29.8 69 20.6 58 58 S 10 17 29.91 1013 10 16.09344 0 0
1:35 pm 13:35 Sunny 87 30.3 69 20.5 56 56 S 12 19 29.91 1013 10 16.09344 0 0
1:55 pm 13:55 Sunny 87 30.6 70 20.9 56 56 SSE 9 15 29.91 1013 10 16.09344 0 0
2:15 pm 14:15 Sunny 88 30.9 69 20.6 54 54 S 14 22 29.91 1013 10 16.09344 0 0
2:35 pm 14:35 Sunny 87 30.8 69 20.6 55 55 S 10 17 29.91 1013 10 16.09344 0 0
2:55 pm 14:55 Sunny 88 31 69 20.5 54 54 SSE 9 15 29.91 1013 10 16.09344 0 0
3:15 pm 15:15 Sunny 88 31.2 69 20.6 53 53 S 12 19 29.91 1013 10 16.09344 0 0
3:35 pm 15:35 Sunny 88 31.3 69 20.8 54 54 S 10 17 29.85 1011 10 16.09344 0 0
3:55 pm 15:55 Sunny 88 31.3 68 20.2 52 52 S 12 19 29.85 1011 10 16.09344 0 0
4:15 pm 16:15 Sunny 88 31.3 69 20.3 52 52 SSE 12 19 29.85 1011 10 16.09344 0 0
4:35 pm 16:35 Sunny 88 31.3 68 20.1 51 51 S 10 17 29.85 1011 10 16.09344 0 0
4:55 pm 16:55 Sunny 89 31.5 69 20.6 52 52 SSE 8 13 29.85 1011 10 16.09344 0 0
5:15 pm 17:15 Sunny 89 31.5 69 20.5 52 52 SSE 9 15 29.85 1011 10 16.09344 0 0
5:35 pm 17:35 Sunny 88 31.2 68 20.1 52 52 SSE 8 13 29.85 1011 10 16.09344 0 0
5:55 pm 17:55 Sunny 88 31.1 68 20 52 52 SSE 10 17 29.85 1011 10 16.09344 0 0
6:15 pm 18:15 Sunny 88 31 69 20.3 53 53 SSE 8 13 29.83 1010 10 16.09344 0 0
6:35 pm 18:35 Sunny 88 31 69 20.8 55 55 SSE 7 11 29.85 1011 10 16.09344 0 0
6:55 pm 18:55 Sunny 87 30.3 70 21.1 58 58 SSE 7 11 29.85 1011 10 16.09344 0 0
7:15 pm 19:15 Sunny 86 30 71 21.5 60 60 SE 8 13 29.85 1011 10 16.09344 0 0
7:35 pm 19:35 Sunny 85 29.3 70 21.2 62 62 SSE 7 11 29.88 1012 10 16.09344 0 0
7:55 pm 19:55 Sunny 84 28.7 70 21 63 63 SE 9 15 29.88 1012 10 16.09344 0 0
8:15 pm 20:15 Sunny 82 27.8 70 21 67 67 SE 7 11 29.88 1012 10 16.09344 0 0
8:35 pm 20:35 Sunny 80 26.7 70 21.3 72 72 SSE 5 7 29.91 1013 10 16.09344 0 0
8:55 pm 20:55 Sunny 78 25.6 71 21.7 79 79 SE 5 7 29.91 1013 10 16.09344 0 0
9:15 pm 21:15 Clear 77 24.8 71 21.5 82 82 SE 6 9 29.91 1013 10 16.09344 0 0
9:35 pm 21:35 Clear 76 24.5 69 20.7 79 79 SE 7 11 29.91 1013 10 16.09344 0 0
9:55 pm 21:55 Clear 75 24.1 69 20.5 80 80 SE 6 9 29.91 1013 10 16.09344 0 0
10:15 pm 22:15 Clear 74 23.6 69 20.7 84 84 SE 6 9 29.97 1015 10 16.09344 0 0
10:35 pm 22:35 Clear 73 23 69 20.5 86 86 SE 6 9 29.97 1015 10 16.09344 0 0
10:55 pm 22:55 Clear 73 23 69 20.5 86 86 SSE 5 7 29.97 1015 10 16.09344 0 0
11:15 pm 23:15 Clear 73 22.8 68 20.1 85 85 SSE 6 9 29.97 1015 10 16.09344 0 0
11:35 pm 23:35 Clear 73 22.5 68 19.8 85 85 SSE 7 11 29.97 1015 10 16.09344 0 0
11:55 pm 23:55 Clear 72 22.3 67 19.6 85 85 SE 7 11 29.97 1015 10 16.09344 0 0

Powered by AerisWeather